Location: Haskovo
(41.9227°N, 25.5707°E)
Time: 22:27:30
(UTC+03:00)

ISS - Pass Details

Date: 21 May 2025
Orbit: 415 x 416 km, 51.6° (Epoch: 16 June)

Event Time Altitude Azimuth Distance (km) Brightness Sun altitude
Rises 23:18:04 0° 305° (NW) 2,360 1.1 -22.2°
Reaches altitude 10° 23:20:10 10° 306° (NW) 1,493 -0.1 -22.3°
Enters shadow 23:22:47 51° 316° (NW) 530 -3.0 -22.6°
